Location: ???????
(54.9996°N, 37.9529°E)
Time: 13:31:14
(UTC+00:00)

Envisat - Pass Details

Date: 14 April 2024
Orbit: 762 x 764 km, 98.3° (Epoch: 18 May)

Event Time Altitude Azimuth Distance (km) Brightness Sun altitude
Rises 01:00:00 0° 16° (NNE) 3,244 7.2 -11.9°
Reaches altitude 10° 01:02:19 10° 18° (NNE) 2,313 6.4 -11.6°
Maximum altitude 01:07:25 76° 104° (ESE) 794 3.2 -11.0°
Drops below altitude 10° 01:12:29 10° 191° (S) 2,295 5.1 -10.4°
Enters shadow 01:14:01 - 192° (SSW) 2,908 5.6 -10.2°
